Time,TemperatureF,DewpointF,PressureIn,WindDirection,WindDirectionDegrees,WindSpeedMPH,WindSpeedGustMPH,Humidity,HourlyPrecipIn,Conditions,Clouds,dailyrainin,SolarRadiationWatts/m^2,SoftwareType,DateUTC
2013-01-26 00:02:00,8.0,0.0,-100.00,WNW,287,4.0,10.0,70,0.00,,,0.02,0.000000,,2013-01-26 06:02:00,
2013-01-26 00:32:00,6.0,-1.0,-100.00,North,352,3.0,9.0,72,0.00,,,0.02,0.000000,,2013-01-26 06:32:00,
2013-01-26 00:42:00,6.0,-1.0,-100.00,North,352,3.0,9.0,72,0.00,,,0.02,0.000000,,2013-01-26 06:42:00,
2013-01-26 00:52:00,6.0,-1.0,-100.00,North,352,3.0,9.0,72,0.00,,,0.02,0.000000,,2013-01-26 06:52:00,
2013-01-26 01:02:00,6.0,-1.0,-100.00,North,352,3.0,9.0,72,0.00,,,0.02,0.000000,,2013-01-26 07:02:00,
2013-01-26 01:33:00,5.0,-1.0,-100.00,NNW,339,4.0,7.0,74,0.00,,,0.02,0.000000,,2013-01-26 07:33:00,
2013-01-26 01:42:00,5.0,-1.0,-100.00,NNW,339,4.0,7.0,74,0.00,,,0.02,0.000000,,2013-01-26 07:42:00,
2013-01-26 01:52:00,5.0,-1.0,-100.00,NNW,339,4.0,7.0,74,0.00,,,0.02,0.000000,,2013-01-26 07:52:00,
2013-01-26 02:02:00,5.0,-1.0,-100.00,NNW,339,4.0,7.0,74,0.00,,,0.02,0.000000,,2013-01-26 08:02:00,
2013-01-26 02:32:00,5.0,-2.0,-100.00,NNW,340,6.0,10.0,72,0.00,,,0.01,0.000000,,2013-01-26 08:32:00,
2013-01-26 02:42:00,5.0,-2.0,-100.00,NNW,340,6.0,10.0,72,0.00,,,0.01,0.000000,,2013-01-26 08:42:00,
2013-01-26 02:54:00,5.0,-2.0,-100.00,NNW,340,6.0,10.0,72,0.00,,,0.01,0.000000,,2013-01-26 08:54:00,
2013-01-26 03:02:00,5.0,-2.0,-100.00,NNW,340,6.0,10.0,72,0.00,,,0.01,0.000000,,2013-01-26 09:02:00,
2013-01-26 03:32:00,1.0,-4.0,-100.00,NNE,27,2.0,10.0,77,0.00,,,0.00,0.000000,,2013-01-26 09:32:00,
2013-01-26 03:42:00,1.0,-4.0,-100.00,NNE,27,2.0,10.0,77,0.00,,,0.00,0.000000,,2013-01-26 09:42:00,
2013-01-26 03:52:00,1.0,-4.0,-100.00,NNE,27,2.0,10.0,77,0.00,,,0.00,0.000000,,2013-01-26 09:52:00,
2013-01-26 04:01:00,1.0,-4.0,-100.00,NNE,27,2.0,10.0,77,0.00,,,0.00,0.000000,,2013-01-26 10:01:00,
2013-01-26 04:32:00,0.0,-5.0,-100.00,NNE,14,2.0,4.0,79,0.00,,,0.00,0.000000,,2013-01-26 10:32:00,
2013-01-26 04:42:00,0.0,-5.0,-100.00,NNE,14,2.0,4.0,79,0.00,,,0.00,0.000000,,2013-01-26 10:42:00,
2013-01-26 04:52:00,0.0,-5.0,-100.00,NNE,14,2.0,4.0,79,0.00,,,0.00,0.000000,,2013-01-26 10:52:00,
2013-01-26 05:01:00,0.0,-5.0,-100.00,NNE,14,2.0,4.0,79,0.00,,,0.00,0.000000,,2013-01-26 11:01:00,
2013-01-26 05:32:00,-2.0,-6.0,-100.00,NNE,15,1.0,4.0,81,0.00,,,0.00,0.000000,,2013-01-26 11:32:00,
2013-01-26 05:42:00,-2.0,-6.0,-100.00,NNE,15,1.0,4.0,81,0.00,,,0.00,0.000000,,2013-01-26 11:42:00,
2013-01-26 05:52:00,-2.0,-6.0,-100.00,NNE,15,1.0,4.0,81,0.00,,,0.00,0.000000,,2013-01-26 11:52:00,
2013-01-26 06:02:00,-2.0,-6.0,-100.00,NNE,15,1.0,4.0,81,0.00,,,0.00,0.000000,,2013-01-26 12:02:00,
2013-01-26 06:33:00,-4.0,-9.0,-100.00,SSE,165,1.0,2.0,78,0.00,,,0.00,0.000000,,2013-01-26 12:33:00,
2013-01-26 06:42:00,-4.0,-9.0,-100.00,SSE,165,1.0,2.0,78,0.00,,,0.00,0.000000,,2013-01-26 12:42:00,
2013-01-26 06:53:00,-4.0,-9.0,-100.00,SSE,165,1.0,2.0,78,0.00,,,0.00,0.000000,,2013-01-26 12:53:00,
2013-01-26 07:03:00,-4.0,-9.0,-100.00,SSE,165,1.0,2.0,78,0.00,,,0.00,0.000000,,2013-01-26 13:03:00,
2013-01-26 07:33:00,-4.0,-9.0,-100.00,SSE,156,2.0,3.0,77,0.00,,,0.00,0.000000,,2013-01-26 13:33:00,
2013-01-26 07:42:00,-4.0,-9.0,-100.00,SSE,156,2.0,3.0,77,0.00,,,0.00,0.000000,,2013-01-26 13:42:00,
2013-01-26 07:53:00,-4.0,-9.0,-100.00,SSE,156,2.0,3.0,77,0.00,,,0.00,0.000000,,2013-01-26 13:53:00,
2013-01-26 08:03:00,-4.0,-9.0,-100.00,SSE,156,2.0,3.0,77,0.00,,,0.00,0.000000,,2013-01-26 14:03:00,
2013-01-26 08:32:00,-3.0,-8.0,-100.00,SE,126,1.0,3.0,77,0.00,,,0.00,11.000000,,2013-01-26 14:32:00,
2013-01-26 08:43:00,-3.0,-8.0,-100.00,SE,126,1.0,3.0,77,0.00,,,0.00,11.000000,,2013-01-26 14:43:00,
2013-01-26 08:53:00,-3.0,-8.0,-100.00,SE,126,1.0,3.0,77,0.00,,,0.00,11.000000,,2013-01-26 14:53:00,
2013-01-26 09:03:00,-3.0,-8.0,-100.00,SE,126,1.0,3.0,77,0.00,,,0.00,11.000000,,2013-01-26 15:03:00,
2013-01-26 09:33:00,6.0,0.0,-100.00,ENE,63,0.0,3.0,75,0.00,,,0.00,102.000000,,2013-01-26 15:33:00,
2013-01-26 09:43:00,6.0,0.0,-100.00,ENE,63,0.0,3.0,75,0.00,,,0.00,102.000000,,2013-01-26 15:43:00,
2013-01-26 09:53:00,6.0,0.0,-100.00,ENE,63,0.0,3.0,75,0.00,,,0.00,102.000000,,2013-01-26 15:53:00,
2013-01-26 10:02:00,6.0,0.0,-100.00,ENE,63,0.0,3.0,75,0.00,,,0.00,102.000000,,2013-01-26 16:02:00,
2013-01-26 10:33:00,14.0,3.0,-100.00,NW,306,2.0,3.0,60,0.00,,,0.00,259.000000,,2013-01-26 16:33:00,
2013-01-26 10:43:00,14.0,3.0,-100.00,NW,306,2.0,3.0,60,0.00,,,0.00,259.000000,,2013-01-26 16:43:00,
2013-01-26 10:53:00,14.0,3.0,-100.00,NW,306,2.0,3.0,60,0.00,,,0.00,259.000000,,2013-01-26 16:53:00,
2013-01-26 11:03:00,14.0,3.0,-100.00,NW,306,2.0,3.0,60,0.00,,,0.00,259.000000,,2013-01-26 17:03:00,
2013-01-26 11:33:00,16.0,4.0,-100.00,SW,215,2.0,7.0,59,0.00,,,0.00,357.000000,,2013-01-26 17:33:00,
2013-01-26 11:42:00,16.0,4.0,-100.00,SW,215,2.0,7.0,59,0.00,,,0.00,357.000000,,2013-01-26 17:42:00,
2013-01-26 11:53:00,16.0,4.0,-100.00,SW,215,2.0,7.0,59,0.00,,,0.00,357.000000,,2013-01-26 17:53:00,
2013-01-26 12:02:00,16.0,4.0,-100.00,SW,215,2.0,7.0,59,0.00,,,0.00,357.000000,,2013-01-26 18:02:00,
2013-01-26 12:33:00,24.0,7.0,-100.00,ENE,67,2.0,6.0,47,0.00,,,0.00,448.000000,,2013-01-26 18:33:00,
2013-01-26 12:42:00,24.0,7.0,-100.00,ENE,67,2.0,6.0,47,0.00,,,0.00,448.000000,,2013-01-26 18:42:00,
2013-01-26 12:53:00,24.0,7.0,-100.00,ENE,67,2.0,6.0,47,0.00,,,0.00,448.000000,,2013-01-26 18:53:00,
2013-01-26 13:03:00,24.0,7.0,-100.00,ENE,67,2.0,6.0,47,0.00,,,0.00,448.000000,,2013-01-26 19:03:00,
2013-01-26 13:33:00,20.0,2.0,-100.00,SE,142,4.0,6.0,45,0.00,,,0.00,285.000000,,2013-01-26 19:33:00,
2013-01-26 13:43:00,20.0,2.0,-100.00,SE,142,4.0,6.0,45,0.00,,,0.00,285.000000,,2013-01-26 19:43:00,
2013-01-26 13:53:00,20.0,2.0,-100.00,SE,142,4.0,6.0,45,0.00,,,0.00,285.000000,,2013-01-26 19:53:00,
2013-01-26 14:02:00,20.0,2.0,-100.00,SE,142,4.0,6.0,45,0.00,,,0.00,285.000000,,2013-01-26 20:02:00,
2013-01-26 14:32:00,20.0,3.0,-100.00,SSE,151,10.0,14.0,47,0.00,,,0.00,247.000000,,2013-01-26 20:32:00,
2013-01-26 14:42:00,20.0,3.0,-100.00,SSE,151,10.0,14.0,47,0.00,,,0.00,247.000000,,2013-01-26 20:42:00,
2013-01-26 14:52:00,20.0,3.0,-100.00,SSE,151,10.0,14.0,47,0.00,,,0.00,247.000000,,2013-01-26 20:52:00,
2013-01-26 15:02:00,20.0,3.0,-100.00,SSE,151,10.0,14.0,47,0.00,,,0.00,247.000000,,2013-01-26 21:02:00,
2013-01-26 15:32:00,22.0,5.0,-100.00,SSE,160,7.0,14.0,47,0.00,,,0.00,187.000000,,2013-01-26 21:32:00,
2013-01-26 15:43:00,22.0,5.0,-100.00,SSE,160,7.0,14.0,47,0.00,,,0.00,187.000000,,2013-01-26 21:43:00,
2013-01-26 15:52:00,22.0,5.0,-100.00,SSE,160,7.0,14.0,47,0.00,,,0.00,187.000000,,2013-01-26 21:52:00,
2013-01-26 16:01:00,22.0,5.0,-100.00,SSE,160,7.0,14.0,47,0.00,,,0.00,187.000000,,2013-01-26 22:01:00,
2013-01-26 16:32:00,21.0,4.0,-100.00,SE,138,6.0,11.0,48,0.00,,,0.00,121.000000,,2013-01-26 22:32:00,
2013-01-26 16:42:00,21.0,4.0,-100.00,SE,138,6.0,11.0,48,0.00,,,0.00,121.000000,,2013-01-26 22:42:00,
2013-01-26 16:52:00,21.0,4.0,-100.00,SE,138,6.0,11.0,48,0.00,,,0.00,121.000000,,2013-01-26 22:52:00,
2013-01-26 17:01:00,21.0,4.0,-100.00,SE,138,6.0,11.0,48,0.00,,,0.00,121.000000,,2013-01-26 23:01:00,
2013-01-26 17:33:00,21.0,5.0,-100.00,SSE,147,4.0,10.0,50,0.00,,,0.00,21.000000,,2013-01-26 23:33:00,
2013-01-26 17:42:00,21.0,5.0,-100.00,SSE,147,4.0,10.0,50,0.00,,,0.00,21.000000,,2013-01-26 23:42:00,
2013-01-26 17:52:00,21.0,5.0,-100.00,SSE,147,4.0,10.0,50,0.00,,,0.00,21.000000,,2013-01-26 23:52:00,
2013-01-26 18:02:00,21.0,5.0,-100.00,SSE,147,4.0,10.0,50,0.00,,,0.00,21.000000,,2013-01-27 00:02:00,
2013-01-26 18:32:00,21.0,7.0,-100.00,SE,131,6.0,9.0,53,0.00,,,0.00,0.000000,,2013-01-27 00:32:00,
2013-01-26 18:42:00,21.0,7.0,-100.00,SE,131,6.0,9.0,53,0.00,,,0.00,0.000000,,2013-01-27 00:42:00,
2013-01-26 18:52:00,21.0,7.0,-100.00,SE,131,6.0,9.0,53,0.00,,,0.00,0.000000,,2013-01-27 00:52:00,
2013-01-26 19:01:00,21.0,7.0,-100.00,SE,131,6.0,9.0,53,0.00,,,0.00,0.000000,,2013-01-27 01:01:00,
2013-01-26 19:32:00,22.0,8.0,-100.00,SSE,159,8.0,12.0,53,0.00,,,0.00,0.000000,,2013-01-27 01:32:00,
2013-01-26 19:42:00,22.0,8.0,-100.00,SSE,159,8.0,12.0,53,0.00,,,0.00,0.000000,,2013-01-27 01:42:00,
2013-01-26 19:52:00,22.0,8.0,-100.00,SSE,159,8.0,12.0,53,0.00,,,0.00,0.000000,,2013-01-27 01:52:00,
2013-01-26 20:01:00,22.0,8.0,-100.00,SSE,159,8.0,12.0,53,0.00,,,0.00,0.000000,,2013-01-27 02:01:00,
2013-01-26 20:32:00,21.0,6.0,-100.00,SSE,157,11.0,17.0,52,0.00,,,0.00,0.000000,,2013-01-27 02:32:00,
2013-01-26 20:42:00,21.0,6.0,-100.00,SSE,157,11.0,17.0,52,0.00,,,0.00,0.000000,,2013-01-27 02:42:00,
2013-01-26 20:52:00,21.0,6.0,-100.00,SSE,157,11.0,17.0,52,0.00,,,0.00,0.000000,,2013-01-27 02:52:00,
2013-01-26 21:02:00,21.0,6.0,-100.00,SSE,157,11.0,17.0,52,0.00,,,0.00,0.000000,,2013-01-27 03:02:00,
2013-01-26 21:32:00,22.0,8.0,-100.00,SSE,152,9.0,19.0,53,0.00,,,0.00,0.000000,,2013-01-27 03:32:00,
2013-01-26 21:42:00,22.0,8.0,-100.00,SSE,152,9.0,19.0,53,0.00,,,0.00,0.000000,,2013-01-27 03:42:00,
2013-01-26 21:52:00,22.0,8.0,-100.00,SSE,152,9.0,19.0,53,0.00,,,0.00,0.000000,,2013-01-27 03:52:00,
2013-01-26 22:01:00,22.0,8.0,-100.00,SSE,152,9.0,19.0,53,0.00,,,0.00,0.000000,,2013-01-27 04:01:00,
2013-01-26 22:32:00,22.0,8.0,-100.00,SSE,159,10.0,17.0,54,0.00,,,0.00,0.000000,,2013-01-27 04:32:00,
2013-01-26 22:42:00,22.0,8.0,-100.00,SSE,159,10.0,17.0,54,0.00,,,0.00,0.000000,,2013-01-27 04:42:00,
2013-01-26 22:52:00,22.0,8.0,-100.00,SSE,159,10.0,17.0,54,0.00,,,0.00,0.000000,,2013-01-27 04:52:00,
2013-01-26 23:03:00,22.0,8.0,-100.00,SSE,159,10.0,17.0,54,0.00,,,0.00,0.000000,,2013-01-27 05:03:00,
2013-01-26 23:32:00,22.0,8.0,-100.00,SSE,152,7.0,12.0,55,0.00,,,0.00,0.000000,,2013-01-27 05:32:00,
2013-01-26 23:42:00,22.0,8.0,-100.00,SSE,152,7.0,12.0,55,0.00,,,0.00,0.000000,,2013-01-27 05:42:00,
2013-01-26 23:52:00,22.0,8.0,-100.00,SSE,152,7.0,12.0,55,0.00,,,0.00,0.000000,,2013-01-27 05:52:00,